Location: Los Angeles
(34.0542°N, 118.2411°W)
Time: 18:57:08
(UTC-08:00)

Daily predictions for brighter satellites

Satellite Brightness Start Highest point End
(mag) Time Altitude Azimuth Time Altitude Azimuth Time Altitude Azimuth
Cosmos 1666 Rocket 4.5 17:35:51 10° SSE 17:39:31 27° E 17:43:13 10° NNE
BREEZE-M DEB (TANK) 3.9 17:38:34 10° NW 17:42:45 61° SW 17:50:09 10° SE
Cosmos 1538 Rocket 4.2 17:39:02 10° S 17:44:09 52° ESE 17:49:20 10° NNE
Thor Agena Rocket 4.0 17:39:14 10° N 17:44:26 67° WNW 17:49:31 10° SSW
SPOT 3 Rocket 3.7 17:39:19 10° S 17:44:27 80° WSW 17:49:38 10° NNW
SL-16 R/B 2.2 17:38:57 10° SSW 17:44:34 73° ESE 17:50:13 10° NNE
SL-14 R/B 3.9 17:40:48 10° SSW 17:44:40 61° W 17:48:36 10° N
Cosmos 1484 Rocket 2.9 17:42:43 10° SSE 17:46:34 57° ENE 17:50:30 10° N
Meteor 1-27 4.3 17:42:25 10° N 17:48:15 68° E 17:54:02 10° SSE
Cosmos 1340 Rocket 2.7 17:44:57 10° S 17:48:53 86° E 17:52:49 10° N
Meteor 2-10 4.0 17:44:31 10° N 17:49:41 68° E 17:54:58 10° SSE
Cosmos 304 Rocket 4.0 17:48:04 10° SSW 17:52:51 78° WNW 17:57:41 10° NNE
Meteor 1-28 Rocket 3.3 17:53:42 10° NNE 17:57:21 53° E 18:01:00 10° S
Tiangong 1 1.8 17:55:21 10° SW 17:58:07 36° SE 18:00:16 14° E
Lacrosse 4 Rocket 3.0 17:58:11 10° NNE 18:00:35 15° NE 18:01:45 14° ENE
Cosmos 2297 3.8 17:55:57 10° NNW 18:01:35 58° ENE 18:07:13 10° SE
Cosmos 1151 Rocket 4.2 17:58:18 10° NNW 18:02:25 46° W 18:06:31 10° SSW
Cosmos 1869 4.5 18:04:18 10° NNE 18:07:28 22° ENE 18:10:36 10° SE
METEOR-M 4.4 18:05:58 10° SE 18:10:59 43° ENE 18:16:00 10° N
Cosmos 2058 4.4 18:08:21 10° SSW 18:12:12 38° W 18:16:02 10° N
Cosmos 2279 Rocket 4.2 18:09:07 10° N 18:15:20 76° W 18:21:33 10° S
Cosmos 1805 Rocket 4.0 18:13:09 10° SSW 18:17:34 65° W 18:22:00 10° N
NOSS 3-1 (C) 4.3 18:13:22 10° SSE 18:17:52 25° ESE 18:20:20 19° ENE
Cosmos 773 Rocket 3.9 18:13:21 10° S 18:18:29 74° ESE 18:23:41 10° NNE
NOAA 12 4.1 18:14:08 10° SSE 18:19:13 55° ENE 18:24:22 10° N
Cosmos 1626 2.4 18:18:05 10° SSW 18:21:47 69° W 18:25:32 10° N
Cosmos 1943 4.3 18:18:27 10° SSE 18:22:40 22° E 18:23:49 21° E
Cosmos 2242 Rocket 4.0 18:20:28 10° N 18:24:38 39° E 18:28:48 10° SSE
Cosmos 1900 4.3 18:23:55 10° NNW 18:28:55 90° ENE 18:33:57 10° SSE
Sich 1 3.3 18:25:53 10° S 18:30:18 74° W 18:34:45 10° N
Nadezhda 4 Rocket 4.0 18:24:09 10° S 18:30:24 90° ENE 18:36:45 10° N
USA 215 3.9 18:28:14 21° E 18:31:46 35° NE 18:37:33 10° NNW
Cosmos 1356 Rocket 4.1 18:28:15 10° SSW 18:32:08 52° W 18:36:03 10° N
Coronas F rocket 1.2 18:30:55 10° SSW 18:33:16 67° W 18:34:09 33° N
Cosmos 2026 Rocket 4.4 18:28:43 10° SSE 18:34:17 36° E 18:39:48 10° NNE
Lacrosse 5 rocket 3.0 18:31:08 10° WNW 18:34:38 33° SW 18:38:20 10° S
Cosmos 2112 Rocket 4.3 18:30:03 10° S 18:34:55 42° ESE 18:37:38 24° NE
Centaur AC-72 4.4 18:33:39 10° SW 18:38:54 30° SSE 18:47:32 13° ESE
ALOS 2.7 18:34:46 10° SE 18:39:05 38° ENE 18:43:24 10° N
Aureole 1 Rocket 3.9 18:35:19 10° SSW 18:40:27 77° WNW 18:47:21 10° NNE
Cosmos 1633 Rocket 3.5 18:36:29 10° SSW 18:40:51 64° W 18:45:13 10° N
BREEZE M DEB (TANK) 2.9 18:41:24 10° NW 18:42:29 24° NNW 18:42:29 24° NNW
Delta 2 Rocket 3.6 18:43:39 10° SW 18:46:45 36° SSE 18:46:48 36° SSE
Cosmos 1455 2.7 18:44:31 10° NNW 18:48:16 60° W 18:52:02 10° S
Cosmos 1603 3.6 18:43:47 10° SSW 18:49:23 88° WNW 18:54:02 16° NNE
Cosmos 292 Rocket 3.6 18:44:44 10° SSW 18:49:29 88° ESE 18:52:43 21° NNE
FengYun 1-2 T 4.2 18:46:59 10° SSE 18:52:25 58° ENE 18:57:50 10° N
Cosmos 1092 Rocket 4.0 18:46:35 10° S 18:52:54 84° W 18:59:17 10° N
Chunghua 1 4.5 18:49:06 10° WSW 18:53:03 88° SSE 18:53:30 68° E
SJ-6B 3.3 18:53:58 10° S 18:57:59 65° WSW 19:02:06 10° NNW
Spot 2 Rocket 3.3 19:02:24 10° SSE 19:07:24 71° ENE 19:12:26 10° N
Milstar 3 4.5 19:05:34 10° WSW 19:10:54 25° SSW 19:16:55 10° SSE
Iridium 4 Rocket 3.9 19:06:33 10° SSW 19:10:59 51° W 19:15:08 10° N
Cosmos 2195 Rocket 4.4 19:09:55 10° S 19:16:01 84° W 19:22:11 10° N
Centaur AC-119 3.7 19:16:25 10° SW 19:18:32 32° S 19:18:32 32° S
Resurs 01 Rocket 2.0 19:22:29 10° S 19:27:18 61° WNW 19:31:19 10° NNW
Cosmos 2369 Rocket 3.8 19:22:50 10° N 19:24:42 20° N 19:24:42 20° N
Intelsat 5-1 Rocket 4.4 19:28:01 10° SSW 19:29:45 15° S 19:29:45 15° S
NOSS 3-1 (A) 3.3 19:24:44 10° SSW 19:29:52 68° SSE 19:29:52 68° SSE
Meteor 2-20 Rocket 4.2 19:24:33 10° S 19:30:38 79° E 19:30:40 79° E
Tiangong 1 4.4 19:31:31 10° W 19:31:52 12° W 19:31:52 12° W
Lacrosse 4 Rocket 3.1 19:35:40 10° NW 19:38:14 30° WNW 19:38:14 30° WNW
Cosmos 1655 Rocket 4.5 19:44:12 10° SSW 19:50:29 60° W 19:54:27 24° N
Cosmos 1943 4.3 20:01:01 10° SW 20:05:43 41° W 20:05:43 41° W
NOSS 3-1 (C) 4.4 20:02:51 10° WSW 20:07:49 41° WNW 20:07:49 41° WNW
USA 215 3.8 20:15:37 55° W 20:15:37 55° W 20:20:57 10° NW
